Date String (YYYY-MM-DD hh:mm:ss) UTC,Instrument flags,absolute air pressure of the measurement (hPa),sample flow rate (lpm),inlet stack bypass flow (lpm),air temperature of the measurement (°C),ambient temperature measured by the external sensor (°C),aerosol sample conditioner tube jacket temperature (°C),OPC LED temperature (°C),internal box temperature (°C),relative humidity of the measurement (%),span deviation,mass concentration of particles derived from Lorenz-Mie calculation of OPC scattering (μg/m³),mass concentration of particles derived from Lorenz-Mie calculation of OPC scattering (μg/m³),mass concentration of particles derived from Lorenz-Mie calculation of OPC scattering (μg/m³)
DateTimeUTC,F1_M11,P_M11,Q1_M11,Q2_M11,T1_M11,T2_M11,T3_M11,T4_M11,T5_M11,U1_M11,ZSPAN_M11,X2_M11,X0_M11,X1_M11
2023-06-23 04:00:00,SystemResetWarning,0830.5,5.00,000.00,031.6,028.0,000.0,040.0,031.8,32.4,0000.0,0004.25,0007.77,0003.76
2023-06-23 04:01:00,SystemResetWarning,0830.7,5.00,000.00,031.6,028.1,000.0,039.9,031.9,32.7,0000.0,0004.27,0007.75,0003.77
2023-06-23 04:02:00,SystemResetWarning,0830.7,5.00,000.00,031.6,028.2,000.0,039.9,031.9,33.0,0000.0,0004.28,0007.70,0003.78
2023-06-23 04:03:00,SystemResetWarning,0830.5,5.00,000.00,031.6,028.3,000.0,039.9,031.9,33.1,0000.0,0004.25,0007.63,0003.78
2023-06-23 04:04:00,SystemResetWarning,0830.6,5.00,000.00,031.5,028.4,000.0,039.9,032.0,33.1,0000.0,0004.23,0007.64,0003.77
2023-06-23 04:05:00,SystemResetWarning,0830.6,5.00,000.00,031.5,028.5,000.0,039.9,032.0,33.1,0000.0,0004.20,0007.91,0003.76
2023-06-23 04:06:00,SystemResetWarning,0830.7,4.99,000.00,031.5,028.6,000.0,039.9,032.0,32.9,0000.0,0004.16,0007.82,0003.75
2023-06-23 04:07:00,SystemResetWarning,0830.6,4.99,000.00,031.5,028.6,000.0,039.8,032.0,32.9,0000.0,0004.15,0007.86,0003.74
2023-06-23 04:08:00,SystemResetWarning,0830.6,4.99,000.00,031.5,028.7,000.0,039.8,032.0,32.7,0000.0,0004.15,0007.86,0003.73
2023-06-23 04:09:00,SystemResetWarning,0830.6,4.99,000.00,031.5,028.6,000.0,039.8,032.1,32.5,0000.0,0004.17,0007.90,0003.72
2023-06-23 04:10:00,SystemResetWarning,0830.5,5.01,000.00,031.5,026.8,000.0,039.7,032.1,32.3,0000.0,0004.12,0007.75,0003.71
2023-06-23 04:11:00,SystemResetWarning,0830.5,5.00,000.00,031.4,025.4,000.0,039.6,032.0,32.4,0000.0,0004.07,0007.44,0003.69
2023-06-23 04:12:00,SystemResetWarning,0830.4,5.00,000.00,031.3,025.3,000.0,039.6,031.7,32.6,0000.0,0004.02,0007.23,0003.66
2023-06-23 04:13:00,SystemResetWarning,0830.4,5.01,000.00,031.1,025.6,000.0,039.6,031.5,32.9,0000.0,0003.99,0007.24,0003.64
2023-06-23 04:14:00,SystemResetWarning,0830.7,5.00,000.00,031.0,026.1,000.0,039.5,031.4,33.3,0000.0,0003.99,0007.38,0003.62
2023-06-23 04:15:00,SystemResetWarning,0830.6,4.99,000.00,031.0,026.5,000.0,039.5,031.5,34.4,0000.0,0003.96,0007.36,0003.62
2023-06-23 04:16:00,SystemResetWarning,0830.7,4.99,000.00,030.9,026.9,000.0,039.5,031.6,35.0,0000.0,0003.96,0006.87,0003.61
2023-06-23 04:17:00,SystemResetWarning,0830.7,5.03,000.00,031.0,027.2,000.0,039.5,031.7,34.9,0000.0,0003.97,0006.83,0003.60
2023-06-23 04:18:00,SystemResetWarning,0830.8,4.96,000.00,031.1,027.5,000.0,039.4,031.8,34.5,0000.0,0003.98,0006.85,0003.61
2023-06-23 04:19:00,SystemResetWarning,0830.8,5.01,000.00,031.2,027.7,000.0,039.4,031.7,34.6,0000.0,0004.02,0007.33,0003.63
2023-06-23 04:20:00,SystemResetWarning,0830.8,5.01,000.00,031.2,027.9,000.0,039.4,031.8,34.6,0000.0,0004.01,0007.34,0003.63
2023-06-23 04:21:00,SystemResetWarning,0830.8,4.99,000.00,031.2,028.0,000.0,039.4,031.7,34.6,0000.0,0004.02,0007.42,0003.63
2023-06-23 04:22:00,SystemResetWarning,0830.7,4.99,000.00,031.3,028.2,000.0,039.5,031.8,34.6,0000.0,0004.05,0007.42,0003.64
2023-06-23 04:23:00,SystemResetWarning,0830.8,5.01,000.00,031.3,028.3,000.0,039.5,031.8,34.5,0000.0,0004.13,0007.75,0003.65
2023-06-23 04:24:00,SystemResetWarning,0830.8,5.01,000.00,031.2,028.4,000.0,039.5,031.9,34.4,0000.0,0004.17,0008.03,0003.67
2023-06-23 04:25:00,SystemResetWarning,0830.9,5.00,000.00,031.2,028.4,000.0,039.5,031.9,34.4,0000.0,0004.21,0008.40,0003.69
2023-06-23 04:26:00,SystemResetWarning,0830.9,5.00,000.00,031.2,028.5,000.0,039.5,031.9,34.3,0000.0,0004.25,0009.22,0003.70
2023-06-23 04:27:00,SystemResetWarning,0830.9,5.00,000.00,031.2,028.5,000.0,039.5,031.9,34.3,0000.0,0004.30,0009.36,0003.72
2023-06-23 04:28:00,SystemResetWarning,0830.9,5.00,000.00,031.2,028.6,000.0,039.5,031.9,34.4,0000.0,0004.29,0009.29,0003.73
2023-06-23 04:29:00,SystemResetWarning,0830.9,5.00,000.00,031.2,028.6,000.0,039.5,031.9,34.2,0000.0,0004.32,0009.28,0003.74
2023-06-23 04:30:00,SystemResetWarning,0830.8,5.00,000.00,031.2,028.6,000.0,039.5,032.0,34.1,0000.0,0004.32,0009.08,0003.75
2023-06-23 04:31:00,SystemResetWarning,0830.8,5.00,000.00,031.2,028.4,000.0,039.5,032.0,33.8,0000.0,0004.33,0009.00,0003.77
2023-06-23 04:32:00,SystemResetWarning,0830.8,5.00,000.00,031.2,026.4,000.0,039.4,031.9,33.6,0000.0,0004.38,0009.00,0003.81
2023-06-23 04:33:00,SystemResetWarning,0830.8,5.00,000.00,031.1,025.3,000.0,039.4,031.9,33.7,0000.0,0004.42,0009.11,0003.84
2023-06-23 04:34:00,SystemResetWarning,0830.8,5.00,000.00,031.0,025.2,000.0,039.3,031.5,34.0,0000.0,0004.42,0009.89,0003.87
2023-06-23 04:35:00,SystemResetWarning,0830.8,5.01,000.00,030.9,025.6,000.0,039.3,031.4,34.1,0000.0,0004.43,0009.85,0003.90
2023-06-23 04:36:00,SystemResetWarning,0830.8,5.01,000.00,030.8,026.0,000.0,039.3,031.4,34.0,0000.0,0004.44,0009.64,0003.92
2023-06-23 04:37:00,SystemResetWarning,0830.8,4.99,000.00,030.7,026.4,000.0,039.3,031.4,34.1,0000.0,0004.47,0008.83,0003.93
2023-06-23 04:38:00,SystemResetWarning,0830.8,5.00,000.00,030.7,026.8,000.0,039.2,031.4,34.0,0000.0,0004.48,0009.05,0003.95
2023-06-23 04:39:00,SystemResetWarning,0830.9,5.00,000.00,030.6,027.1,000.0,039.2,031.4,34.0,0000.0,0004.49,0009.15,0003.96
2023-06-23 04:40:00,SystemResetWarning,0830.9,5.00,000.00,030.6,027.4,000.0,039.2,031.4,34.1,0000.0,0004.48,0009.11,0003.97
2023-06-23 04:41:00,SystemResetWarning,0830.9,4.99,000.00,030.6,027.6,000.0,039.2,031.5,34.2,0000.0,0004.47,0009.07,0003.96
2023-06-23 04:42:00,SystemResetWarning,0830.8,5.00,000.00,030.6,027.7,000.0,039.2,031.5,34.3,0000.0,0004.48,0009.08,0003.95
2023-06-23 04:43:00,SystemResetWarning,0830.8,5.01,000.00,030.6,027.9,000.0,039.1,031.5,34.0,0000.0,0004.47,0009.08,0003.93
2023-06-23 04:44:00,SystemResetWarning,0830.8,5.00,000.00,030.6,028.0,000.0,039.1,031.5,33.9,0000.0,0004.46,0009.03,0003.92
2023-06-23 04:45:00,SystemResetWarning,0830.8,5.00,000.00,030.5,028.1,000.0,039.1,031.5,34.0,0000.0,0004.44,0008.27,0003.91
2023-06-23 04:46:00,SystemResetWarning,0830.8,5.00,000.00,030.5,028.2,000.0,039.1,031.5,33.9,0000.0,0004.44,0007.91,0003.91
2023-06-23 04:47:00,SystemResetWarning,0830.8,4.99,000.00,030.5,028.3,000.0,039.1,031.6,33.8,0000.0,0004.42,0008.45,0003.91
2023-06-23 04:48:00,SystemResetWarning,0830.8,4.99,000.00,030.5,028.3,000.0,039.1,031.6,33.9,0000.0,0004.39,0008.64,0003.92
2023-06-23 04:49:00,SystemResetWarning,0830.8,5.00,000.00,030.5,028.4,000.0,039.1,031.6,34.3,0000.0,0004.38,0008.79,0003.92
2023-06-23 04:50:00,SystemResetWarning,0830.8,5.01,000.00,030.6,028.4,000.0,039.1,031.7,34.3,0000.0,0004.38,0009.00,0003.92
2023-06-23 04:51:00,SystemResetWarning,0830.8,5.01,000.00,030.6,028.5,000.0,039.1,031.7,34.3,0000.0,0004.40,0009.13,0003.93
2023-06-23 04:52:00,SystemResetWarning,0830.8,4.99,000.00,030.6,028.5,000.0,039.1,031.7,34.0,0000.0,0004.43,0009.22,0003.94
2023-06-23 04:53:00,SystemResetWarning,0830.8,5.00,000.00,030.6,028.5,000.0,039.1,031.7,33.5,0000.0,0004.46,0009.36,0003.98
2023-06-23 04:54:00,SystemResetWarning,0830.8,4.99,000.00,030.6,028.6,000.0,039.1,031.7,33.2,0000.0,0004.49,0009.48,0004.01
2023-06-23 04:55:00,SystemResetWarning,0830.8,5.01,000.00,030.6,028.6,000.0,039.1,031.7,32.9,0000.0,0004.47,0010.55,0004.03
2023-06-23 04:56:00,SystemResetWarning,0830.8,4.99,000.00,030.6,027.5,000.0,039.0,031.8,32.6,0000.0,0004.47,0010.80,0004.02
2023-06-23 04:57:00,SystemResetWarning,0830.8,5.01,000.00,030.6,025.6,000.0,038.9,031.8,32.3,0000.0,0004.46,0011.34,0004.02
2023-06-23 04:58:00,SystemResetWarning,0830.8,5.00,000.00,030.5,025.1,000.0,038.9,031.6,32.1,0000.0,0004.47,0010.83,0004.02
2023-06-23 04:59:00,SystemResetWarning,0830.7,5.01,000.00,030.3,025.3,000.0,038.9,031.2,32.3,0000.0,0004.47,0010.64,0004.02
